Location: Owatonna
(44.0840°N, 93.2260°W)
Time: 08:51:32
(UTC-05:00)

Daily predictions for brighter satellites

Satellite Brightness Start Highest point End
(mag) Time Altitude Azimuth Time Altitude Azimuth Time Altitude Azimuth
SL-16 R/B 2.5 21:26:51 10° NNW 21:32:26 55° ENE 21:37:59 10° SE
H-2A R/B 3.4 21:32:53 10° ESE 21:37:16 27° ENE 21:41:44 10° N
Cosmos 614 Rocket 4.1 21:33:07 10° S 21:38:13 57° ESE 21:43:19 10° NNE
Cosmos 1818 3.9 21:36:18 10° NNW 21:41:41 56° NE 21:47:01 10° SE
In-Cosmos 22 4.3 21:37:17 10° S 21:42:56 72° E 21:48:42 10° NNE
Meteor 2-1 Rocket 4.3 21:37:04 10° N 21:42:58 87° E 21:48:43 10° S
USA 234 3.5 21:37:25 10° ENE 21:43:38 45° SE 21:49:49 10° SSW
Resurs 01 Rocket 4.1 21:40:52 10° SW 21:44:06 20° W 21:47:22 10° NW
SPOT 5 3.6 21:40:15 10° SE 21:44:41 39° ENE 21:49:23 10° N
ARGOS 3.7 21:39:46 10° SE 21:44:55 46° ENE 21:50:04 10° N
Lacrosse 5 3.3 21:40:23 10° NW 21:44:57 32° NNE 21:49:29 10° E
USA 245 4.2 21:43:05 10° SE 21:45:58 30° ENE 21:49:29 10° N
ERS-1 Rocket 3.0 21:42:49 10° SSE 21:47:50 76° ENE 21:52:53 10° N
MetOp-A 4.3 21:44:07 10° SSE 21:49:24 64° ENE 21:54:42 10° N
Cosmos 2333 Rocket 3.7 21:46:05 10° NW 21:51:04 33° WSW 21:56:01 10° SSW
Cosmos 2219 Rocket 4.1 21:48:06 10° NW 21:52:43 26° WSW 21:57:17 10° SSW
Cosmos 1741 Rocket 4.2 21:47:48 10° S 21:52:57 52° ESE 21:58:06 10° NNE
Cosmos 2061 Rocket 4.4 21:48:28 10° N 21:54:41 52° ENE 22:00:54 10° SSE
Cosmos 2100 Rocket 4.2 21:50:40 10° N 21:56:56 63° E 22:03:12 10° SSE
RESURS DK-1 4.1 21:53:45 10° N 21:57:03 22° NE 22:00:20 10° ESE
CZ-4B DEB 4.1 21:54:21 10° SSW 21:57:05 34° W 21:59:51 10° NNW
CZ-3B DEB 4.5 21:49:08 10° WSW 21:58:59 65° NNW 22:12:05 10° ENE
Cosmos 1459 Rocket 4.2 21:53:28 10° N 21:59:45 62° E 22:05:53 10° SSE
Abrixas rocket 3.6 21:57:54 10° WNW 22:00:57 36° N 22:04:00 10° ENE
Cosmos 1184 Rocket 3.4 21:58:37 10° SSW 22:01:56 60° WNW 22:05:17 10° N
H-2A R/B 4.1 22:01:07 10° E 22:03:40 16° ENE 22:06:13 10° NNE
NOAA 11 4.3 22:01:33 10° SSE 22:06:58 84° WSW 22:12:26 10° NNW
NOSS 3-4 (A) 4.3 22:02:29 10° NW 22:09:21 56° WSW 22:16:39 10° SSE
NOSS 3-4 (C) 4.3 22:02:34 10° NW 22:09:27 57° WSW 22:16:46 10° SSE
Cosmos 2173 Rocket 4.0 22:05:36 10° N 22:11:45 74° E 22:17:53 10° SSE
Meteor 1-21 Rocket 4.3 22:06:25 10° S 22:12:02 63° E 22:17:35 10° NNE
EO 1 Delta rocket 4.4 22:08:13 13° SE 22:12:10 43° ENE 22:16:32 10° N
Landsat 7 4.5 22:16:33 15° SE 22:20:07 41° ENE 22:24:35 10° N
SL-14 R/B 4.5 22:19:16 17° SE 22:21:23 26° E 22:24:42 10° NNE
Cosmos 2208 Rocket 4.1 22:16:57 10° NNW 22:22:17 84° WSW 22:26:53 14° SSE
Cosmos 2084 3.2 22:20:30 10° SSW 22:24:27 61° SE 22:28:14 10° NE
Cosmos 1340 Rocket 4.3 22:23:00 10° SW 22:26:46 39° WNW 22:30:36 10° N
Cosmos 2297 Rocket 3.5 22:21:29 10° SW 22:26:51 44° WNW 22:32:16 10° NNE
Cosmos 1242 Rocket 2.7 22:23:26 10° NNW 22:27:09 73° W 22:30:10 15° S
Cosmos 1802 Rocket 4.0 22:21:28 10° N 22:27:38 84° E 22:33:11 13° S
SPOT 1/Viking Rocket 3.5 22:27:38 16° SSE 22:31:48 79° ENE 22:36:58 10° NNW
Cosmos 1725 Rocket 4.3 22:26:08 10° N 22:32:17 55° ENE 22:36:52 18° SSE
ERBS 4.2 22:29:46 10° NNW 22:32:37 24° NNE 22:35:28 10° E
Terra 2.5 22:31:59 18° SE 22:35:04 40° ENE 22:39:31 10° N
Cosmos 1300 3.1 22:34:00 10° N 22:37:44 48° ENE 22:39:44 24° SE
Cosmos 2263 Rocket 3.5 22:38:53 18° SE 22:40:40 21° E 22:44:44 10° NE
BREEZE-M DEB (TANK) 3.3 22:39:59 10° WNW 22:42:11 41° N 22:47:33 10° ENE
Cosmos 841 Rocket 4.4 22:41:55 10° N 22:46:48 37° ENE 22:49:58 19° ESE
Cosmos 1626 3.8 22:46:13 18° ESE 22:46:51 18° E 22:49:28 10° NE
Tiangong 1 0.7 22:45:43 10° WSW 22:48:29 59° S 22:49:18 37° ESE
Cosmos 1408 Rocket 3.6 22:44:51 12° SSW 22:48:50 77° W 22:53:10 10° N
Cosmos 332 Rocket 3.9 22:44:54 10° NNW 22:49:48 70° ENE 22:52:42 24° SSE
Cosmos 1867 3.6 22:44:26 10° SW 22:49:54 86° NW 22:55:24 10° NE
ATLAS 5 CENTAUR R/B 2.4 22:46:25 10° SW 22:51:03 61° NW 22:56:10 10° NNE
Cosmos 1763 Rocket 3.9 22:46:17 10° N 22:51:17 49° ENE 22:54:12 23° SE
Cosmos 1726 2.1 22:48:30 10° N 22:52:13 83° W 22:54:09 26° S
Cosmos 1603 3.7 22:53:41 10° NNW 22:59:23 86° WSW 23:02:49 25° SSE
Meteor 2-10 4.2 22:54:03 10° N 22:59:38 81° E 23:03:14 24° SSE
Cosmos 2016 Rocket 4.3 22:55:57 10° NNW 23:02:09 64° W 23:07:11 16° S
Cosmos 1500 Rocket 3.7 23:05:52 29° SSE 23:08:00 61° E 23:12:25 10° NNE
Cosmos 1455 3.5 23:08:36 10° NNE 23:11:58 27° ENE 23:12:57 24° E
Cosmos 2058 3.3 23:12:00 34° SE 23:13:22 49° E 23:17:27 10° NNE
SL-16 R/B 4.0 23:11:48 10° NW 23:16:07 23° W 23:20:25 10° SSW
H-2A R/B 2.9 23:12:35 17° SSW 23:16:25 45° W 23:21:36 10° NNW
Cosmos 468 Rocket 4.4 23:11:47 10° NNW 23:16:48 56° WSW 23:19:36 25° S
Cosmos 1943 3.3 23:12:02 10° NNW 23:17:42 69° ENE 23:20:39 29° SE
CARTOSAT-1 3.6 23:15:43 31° S 23:17:44 75° WSW 23:22:04 10° NNW
Cosmos 2151 2.9 23:22:03 35° S 23:23:46 75° E 23:28:05 10° NNE
Cosmos 1703 3.5 23:25:25 42° SE 23:26:21 54° E 23:30:16 10° NNE
USA 234 3.8 23:20:21 10° NE 23:26:47 62° NNW 23:33:12 10° WSW
Cosmos 2228 Rocket 3.7 23:22:35 10° NNW 23:27:04 53° W 23:29:26 26° SSW
Cosmos 2233 Rocket 3.9 23:21:56 10° N 23:28:13 90° ESE 23:31:37 29° S
Lacrosse 5 1.9 23:23:14 10° NW 23:28:16 68° SW 23:30:17 36° SSE
Cosmos 1328 Rocket 4.5 23:27:35 10° NNW 23:31:41 41° W 23:33:52 23° SSW
Cosmos 1515 Rocket 4.0 23:29:52 10° NNW 23:34:07 54° W 23:35:57 30° SSW
Meteor 1-11 4.3 23:31:16 24° S 23:34:53 87° W 23:40:45 10° N
RESURS DK-1 3.3 23:31:22 10° NW 23:35:15 39° WSW 23:36:33 30° SSW
Abrixas rocket 2.1 23:34:42 10° WNW 23:37:59 79° NNE 23:38:21 65° E
H-2A R/B 2.4 23:37:37 34° SSW 23:39:16 56° WSW 23:43:29 10° NNW
Cosmos 1743 Rocket 4.5 23:37:14 19° SW 23:40:01 44° WNW 23:44:11 10° N
Cosmos 371 Rocket 3.9 23:36:30 10° NNW 23:41:08 48° WSW 23:43:02 31° SSW
SL-24 R/B 4.4 23:40:46 46° SSE 23:41:57 82° ENE 23:46:06 10° N
Cosmos 1151 Rocket 3.6 23:42:59 10° NNW 23:47:16 51° W 23:48:52 33° SSW
Meteor 1-27 4.5 23:41:36 10° NNW 23:47:23 66° W 23:50:12 31° SSW
CZ-4B R/B 3.5 23:46:14 10° NNE 23:51:34 90° E 23:53:59 33° SSW
Cosmos 1356 4.1 23:51:08 38° SW 23:52:02 50° WNW 23:55:27 10° N
CZ-2C R/B 3.4 23:49:58 10° NNE 23:54:46 33° E 23:55:50 30° ESE
PSLV R/B 4.3 23:55:36 33° W 23:55:36 33° W 23:58:04 10° NNW
